Retour au catalogue

GEOSKAN-2

ActifRadio amateurSSO
NORAD 64890·PAYLOAD·🇷🇺 Russia
Ce nom de satellite n'a pas encore été confirmé par des sources officielles.

Lancé Jul 25, 2025 depuis Vostochny Cosmodrome

Loading…

Prochains Passages (prochaines 24 heures)

TLE

FraisSource: Space-Track

Époque: Sep 14, 2026, 14:28 UTC

1 64890U 25155Q   26257.60342090  .00009758  00000-0  31143-3 0  9995
2 64890  97.4661 227.0756 0006120 187.5397 172.5754 15.32686624 94478

Suivez GEOSKAN-2 en temps réel avec AllMySat

Download on the App Store